[[{"header":{"parameterUnit":"m.s-1","parameterCategory":2,"la1":30.2991,"la2":30.254,"lo1":-89.0895,"lo2":-89.0444,"dy":0.0017,"dx":0.0017,"nx":28,"ny":28,"refTime":"2024-11-26T03:00:00:Z","depth":"0","parameterNumber":2,"parameterNumberName":"U-component_of_CURRENTS"},"data":[0,0,0,0,0,0,0,0,0,0,0,0,0,0,0,0,0,0,0,0,0,0,0,0,0,0,0,0,0,0,0,0,0,0,0,0,0,0,0,0,0,0,0,0,0,0,0,0,0,0,0,0,0,0,0,0,0,0,-0.0062,-0.0061,0,0.0044,0.0045,0.0047,0.0056,0.0055,0.0054,0.0052,-0.002,-0.002,-0.0021,0,0,0,0,0,0,0,0,0,0,0,0,0,-0.0147,-0.0146,-0.0062,-0.0061,-0.006,0.0044,0.0045,0.0047,0.0056,0.0055,0.0053,0.0052,-0.0019,-0.002,-0.0021,0,0,0,0,0,0,0,0,0,0,0,0,0,-0.0081,-0.0146,-0.0063,-0.0044,-0.0041,0.0043,0.0045,0.0047,0.0057,0.0055,0.0053,0.0051,-0.0019,-0.002,-0.0021,0.001,0,0,-0.0025,-0.0025,0,0,0,0,0,0,0,0,-0.0085,-0.0078,-0.0048,-0.0045,-0.0042,0.0033,-0.0011,0.0026,0.0057,0.0021,0.0052,0.005,-0.0018,-0.0019,0.001,0.0007,0.0004,-0.0025,-0.0025,-0.0026,-0.0026,0,0,0,0,0,0,0,-0.009,-0.0082,-0.0019,-0.0047,-0.0043,-0.0003,0.0003,-0.0002,0.0009,0.0024,0.0025,0.0035,-0.0018,0.0011,0.0007,0.0003,-0.0025,-0.0026,-0.0026,-0.0027,-0.0025,-0.0024,0,0,0,0,0,0,-0.0109,-0.0086,-0.0022,-0.0016,-0.007,-0.0001,0.0007,0.0012,0.0013,0.0012,0.0036,0.0035,0.0014,0.0009,0.0005,0.0008,-0.0026,-0.0027,-0.0028,-0.0026,-0.0025,-0.0024,0,0,0,0,0,0,-0.0112,-0.0105,-0.0026,-0.005,-0.0037,0.0002,0.0009,0.0016,0.0036,0.0024,0.0019,0.0048,0.0012,0.0006,-0.0007,0.0006,-0.0027,-0.0028,-0.0027,-0.0026,-0.0025,0.0035,0,0,0,0,0,0,-0.0115,-0.0106,-0.0103,-0.0051,-0.0037,0.0014,0.0011,0.0019,0.0045,0.0044,0.0033,0.0025,0.001,-0.0005,-0.0008,0.0003,-0.0029,-0.0028,-0.0026,-0.0025,0.0032,0.0038,0.0043,0,0,0,0,0,-0.0118,-0.0112,-0.0103,-0.0095,-0.0036,0.0014,0.0026,0.0049,0.0047,0.006,0.005,0.0025,0.0001,-0.0005,-0.0009,0.0003,-0.0028,-0.0027,-0.0025,0.0029,0.0037,0.0043,0,0,0,0,0,0,-0.0148,-0.0109,-0.0099,-0.0082,-0.0041,0.0015,0.0037,0.0052,0.0064,0.0054,0.0037,0.003,0.0029,0.0006,-0.0,0.0007,-0.0019,-0.0018,0.0024,0.003,0.0036,0.0039,-0.003,0,0,0,0,0,-0.0152,-0.0135,-0.0092,-0.0074,-0.0053,-0.0006,0.0019,0.0033,0.0051,0.0057,0.0049,0.0037,0.0039,0.0024,0.0022,0.0021,0.0019,0.0025,0.003,0.0035,0.0035,0.0048,0.0054,-0.0019,-0.0019,-0.0019,0,0,-0.0157,-0.0132,-0.0123,-0.0078,-0.0039,-0.0006,0.0005,0.0041,0.0061,0.0043,0.0059,0.006,0.0046,0.0054,0.0049,0.0029,0.0059,0.0037,0.0041,0.0038,0.005,0.0057,0.0064,-0.0018,-0.0018,-0.0018,0,0,-0.0142,-0.0135,-0.0106,-0.0076,-0.0026,-0.0004,0.0002,0.0052,0.0065,0.0084,0.0083,0.0088,0.0081,0.0084,0.0081,0.0112,0.0096,0.0107,0.0126,0.0139,0.0145,0.0151,0.0179,0.0186,0.0099,0.0099,0.0099,0,-0.0147,-0.0109,-0.0089,-0.0051,-0.0021,-0.0007,0.0033,0.0049,0.0084,0.0102,0.0082,0.0117,0.0098,0.0125,0.0133,0.0124,0.0133,0.0105,0.0147,0.0152,0.0157,0.0184,0.0191,0.0102,0.0102,0.0101,0.0101,0,-0.0105,-0.0075,-0.0054,-0.0009,0.002,0.0054,0.0077,0.0089,0.0097,0.0124,0.0157,0.0152,0.0169,0.0168,0.0155,0.0186,0.0186,0.0164,0.0133,0.0168,0.0194,0.0201,0.0106,0.0105,0.0104,0.0104,0,0,-0.0098,-0.0037,-0.0026,0.0009,0.0046,0.0079,0.0093,0.0135,0.0156,0.0172,0.0216,0.0223,0.0232,0.0229,0.0225,0.0227,0.027,0.0205,0.0205,0.0238,0.0315,0.0378,0.0391,0.0256,0.0257,0.0258,0.0329,0,-0.0059,0.0012,0.0031,0.0093,0.0134,0.014,0.0165,0.0191,0.02,0.0232,0.0241,0.0273,0.0251,0.0264,0.0268,0.027,0.0286,0.0253,0.0271,0.0272,0.0327,0.04,0.0436,0.0507,0.0335,0.0336,0.0337,0,-0.001,0.0032,0.01,0.0163,0.0183,0.0203,0.0242,0.0268,0.0293,0.0312,0.0334,0.0335,0.0357,0.0322,0.0351,0.0333,0.033,0.0326,0.0328,0.0367,0.0347,0.0439,0.0525,0.0543,0.0346,0.0346,0.0345,0,0.0008,0.0085,0.0139,0.016,0.0221,0.0241,0.0262,0.0291,0.0321,0.0355,0.0381,0.0405,0.0419,0.0418,0.0409,0.0379,0.0442,0.0396,0.0458,0.0462,0.0487,0.0493,0.0595,0.0421,0.042,0.042,0.042,0,0.0047,0.0096,0.0147,0.0177,0.0233,0.0271,0.0312,0.0337,0.0377,0.0422,0.0426,0.0459,0.0439,0.0463,0.0446,0.0497,0.0477,0.0488,0.0493,0.0512,0.0519,0.0527,0.0494,0.0423,0.0422,0.0422,0.0421,0,0.007,0.0101,0.0165,0.0227,0.0241,0.0279,0.0325,0.0365,0.0403,0.0452,0.0467,0.0506,0.0549,0.055,0.0557,0.0559,0.0592,0.0601,0.0639,0.0648,0.0718,0.0685,0.0739,0.0705,0.0684,0.0686,0.0688,0,0.0086,0.0128,0.0189,0.0215,0.0239,0.0283,0.0322,0.0368,0.04,0.0481,0.0514,0.057,0.0614,0.0688,0.0704,0.0739,0.0682,0.0789,0.0735,0.0761,0.0727,0.0669,0.063,0.0794,0.0796,0.0798,0.08,0,0.0132,0.0153,0.0196,0.0243,0.028,0.0317,0.0359,0.0387,0.0451,0.0496,0.0567,0.061,0.0708,0.0774,0.0844,0.0854,0.0788,0.0833,0.0842,0.0824,0.0783,0.074,0.0712,0.0818,0.0816,0.0815,0.0814,0.0813,0.016,0.0188,0.024,0.0277,0.0315,0.0351,0.0376,0.0425,0.0478,0.0554,0.0587,0.0674,0.0794,0.0904,0.0939,0.1028,0.0916,0.1011,0.0972,0.0914,0.0881,0.0915,0.1033,0.1033,0.1032,0.1032,0.1032,0,0.0215,0.0236,0.0278,0.0312,0.0346,0.0359,0.0412,0.0443,0.0498,0.0576,0.0627,0.0779,0.0901,0.1007,0.1138,0.116,0.1087,0.1147,0.1063,0.1012,0.1051,0.1057,0.1208,0.1208,0.1208,0.1208,0.1208,0.1207,0.0244,0.0291,0.0301,0.0337,0.0353,0.0402,0.0429,0.0477,0.0531,0.0642,0.0732,0.0797,0.0986,0.1206,0.1302,0.1284,0.1158,0.1167,0.1089,0.1122,0.1106,0.1089,0.1091,0.1247,0.1247,0.1044,0.1043,0.1042]},{"header":{"parameterUnit":"m.s-1","parameterCategory":2,"la1":30.2991,"la2":30.254,"lo1":-89.0895,"lo2":-89.0444,"dy":0.0017,"dx":0.0017,"nx":28,"ny":28,"refTime":"2024-11-26T03:00:00:Z","depth":"0","parameterNumber":3,"parameterNumberName":"V-component_of_CURRENTS"},"data":[0,0,0,0,0,0,0,0,0,0,0,0,0,0,0,0,0,0,0,0,0,0,0,0,0,0,0,0,0,0,0,0,0,0,0,0,0,0,0,0,0,0,0,0,0,0,0,0,0,0,0,0,0,0,0,0,0,0,-0.1808,-0.1807,0,-0.1771,-0.1771,-0.1772,-0.1795,-0.1795,-0.1796,-0.1796,-0.2045,-0.2051,-0.2058,0,0,0,0,0,0,0,0,0,0,0,0,0,-0.1895,-0.1894,-0.1808,-0.1807,-0.1806,-0.1771,-0.1771,-0.1772,-0.1795,-0.1795,-0.1796,-0.1796,-0.2043,-0.2051,-0.2058,0,0,0,0,0,0,0,0,0,0,0,0,0,-0.1867,-0.1894,-0.1809,-0.1806,-0.1805,-0.1771,-0.1771,-0.1772,-0.1795,-0.1795,-0.1796,-0.1796,-0.2041,-0.205,-0.2059,-0.2112,0,0,-0.2089,-0.2093,0,0,0,0,0,0,0,0,-0.1869,-0.1865,-0.1808,-0.1806,-0.1804,-0.178,-0.1893,-0.1897,-0.1795,-0.1809,-0.1796,-0.1796,-0.1977,-0.1991,-0.1993,-0.2124,-0.2135,-0.209,-0.2096,-0.21,-0.2103,0,0,0,0,0,0,0,-0.1871,-0.1866,-0.1803,-0.1806,-0.1804,-0.1804,-0.1802,-0.1893,-0.1904,-0.1808,-0.1807,-0.1787,-0.1979,-0.1984,-0.2,-0.2138,-0.209,-0.2098,-0.2104,-0.2108,-0.2287,-0.2286,0,0,0,0,0,0,-0.1855,-0.1868,-0.1804,-0.1801,-0.1827,-0.1802,-0.18,-0.1795,-0.1897,-0.1907,-0.1787,-0.1788,-0.1967,-0.1989,-0.2009,-0.206,-0.21,-0.2109,-0.2114,-0.2288,-0.2287,-0.2286,0,0,0,0,0,0,-0.1858,-0.1851,-0.1806,-0.1826,-0.1819,-0.1799,-0.1794,-0.1794,-0.1789,-0.1876,-0.1895,-0.178,-0.1968,-0.1996,-0.2062,-0.2071,-0.2113,-0.2122,-0.2289,-0.2288,-0.2286,-0.2175,0,0,0,0,0,0,-0.1861,-0.1852,-0.1833,-0.1825,-0.1816,-0.1776,-0.1793,-0.1793,-0.1772,-0.1774,-0.1877,-0.19,-0.197,-0.2046,-0.2071,-0.2085,-0.2129,-0.2291,-0.2289,-0.2287,-0.218,-0.217,-0.2161,0,0,0,0,0,-0.1864,-0.1836,-0.1833,-0.1824,-0.1795,-0.1774,-0.1771,-0.1765,-0.1771,-0.1765,-0.182,-0.1897,-0.2052,-0.2053,-0.2083,-0.21,-0.2292,-0.2289,-0.2287,-0.2184,-0.2172,-0.2162,0,0,0,0,0,0,-0.1859,-0.1834,-0.1831,-0.1795,-0.178,-0.1774,-0.175,-0.1755,-0.1789,-0.1798,-0.1889,-0.1916,-0.1971,-0.2046,-0.2044,-0.2141,-0.2184,-0.2187,-0.2096,-0.2085,-0.2076,-0.2052,-0.2138,0,0,0,0,0,-0.1847,-0.1822,-0.1805,-0.1774,-0.1763,-0.1758,-0.1743,-0.1746,-0.177,-0.1782,-0.1862,-0.1937,-0.1985,-0.204,-0.2103,-0.2173,-0.2197,-0.2199,-0.219,-0.2181,-0.2179,-0.2203,-0.2196,-0.2278,-0.2278,-0.2278,0,0,-0.1825,-0.1813,-0.1792,-0.177,-0.1758,-0.1736,-0.1752,-0.1729,-0.1727,-0.1813,-0.1857,-0.1909,-0.1989,-0.2042,-0.2078,-0.2112,-0.2162,-0.2179,-0.2171,-0.2173,-0.22,-0.2192,-0.2185,-0.2277,-0.2277,-0.2277,0,0,-0.1765,-0.177,-0.1721,-0.1715,-0.169,-0.1706,-0.1696,-0.1706,-0.1725,-0.1762,-0.1806,-0.1849,-0.1967,-0.2007,-0.2042,-0.2025,-0.2096,-0.2058,-0.2019,-0.2042,-0.2036,-0.203,-0.2009,-0.2002,-0.2072,-0.2072,-0.2072,0,-0.1722,-0.1681,-0.1702,-0.1664,-0.164,-0.1691,-0.164,-0.1678,-0.1717,-0.1729,-0.1769,-0.1869,-0.1943,-0.1973,-0.1961,-0.2006,-0.2016,-0.2055,-0.2029,-0.2025,-0.2021,-0.2001,-0.1995,-0.2066,-0.2067,-0.2067,-0.2068,0,-0.1634,-0.16,-0.1575,-0.1553,-0.1547,-0.1516,-0.1561,-0.1591,-0.1636,-0.1672,-0.1717,-0.1802,-0.1856,-0.1888,-0.1927,-0.1937,-0.1946,-0.1996,-0.2054,-0.2006,-0.1987,-0.1983,-0.2058,-0.206,-0.2062,-0.2063,0,0,-0.1508,-0.1503,-0.1489,-0.1464,-0.1481,-0.1468,-0.1489,-0.1503,-0.1514,-0.16,-0.1609,-0.1688,-0.1738,-0.1778,-0.1839,-0.1876,-0.1845,-0.1926,-0.193,-0.1896,-0.186,-0.1813,-0.1805,-0.1896,-0.1895,-0.1895,-0.1841,0,-0.1406,-0.133,-0.1355,-0.1293,-0.1255,-0.1319,-0.1339,-0.1381,-0.1445,-0.1499,-0.1589,-0.1636,-0.1699,-0.1724,-0.1764,-0.1839,-0.1838,-0.1853,-0.192,-0.1921,-0.188,-0.1801,-0.1769,-0.1715,-0.1838,-0.1838,-0.1837,0,-0.1291,-0.1257,-0.1175,-0.1169,-0.1156,-0.1154,-0.1183,-0.1206,-0.1308,-0.135,-0.1417,-0.1511,-0.1578,-0.1644,-0.1724,-0.1733,-0.1769,-0.1825,-0.1825,-0.1823,-0.1868,-0.1794,-0.1705,-0.1744,-0.1832,-0.1833,-0.1833,0,-0.1193,-0.113,-0.107,-0.1061,-0.1073,-0.1059,-0.1083,-0.1157,-0.1177,-0.1266,-0.1297,-0.1396,-0.1452,-0.1536,-0.1656,-0.1688,-0.1738,-0.18,-0.1773,-0.1769,-0.1776,-0.1773,-0.1731,-0.1812,-0.1812,-0.1812,-0.1812,0,-0.1086,-0.1033,-0.1026,-0.0992,-0.0948,-0.0979,-0.0964,-0.1007,-0.1063,-0.1092,-0.122,-0.1259,-0.1431,-0.1508,-0.1607,-0.1665,-0.1688,-0.1734,-0.175,-0.1731,-0.1725,-0.1791,-0.1818,-0.181,-0.181,-0.1811,-0.1811,0,-0.1005,-0.1,-0.0929,-0.0906,-0.0907,-0.0884,-0.0899,-0.0901,-0.0952,-0.0992,-0.1019,-0.1143,-0.1234,-0.1378,-0.1504,-0.1578,-0.1669,-0.1661,-0.1601,-0.1611,-0.1629,-0.1651,-0.1647,-0.1675,-0.1619,-0.1618,-0.1617,0,-0.0979,-0.092,-0.0867,-0.0851,-0.0844,-0.0822,-0.0824,-0.0853,-0.0847,-0.0927,-0.0937,-0.1031,-0.1105,-0.1248,-0.1394,-0.1505,-0.1578,-0.1519,-0.1578,-0.159,-0.1629,-0.168,-0.1709,-0.1528,-0.1526,-0.1525,-0.1524,0,-0.0905,-0.0875,-0.0831,-0.0776,-0.0763,-0.0743,-0.0732,-0.0714,-0.076,-0.0781,-0.0823,-0.0888,-0.1029,-0.1138,-0.1269,-0.1363,-0.1536,-0.1488,-0.1538,-0.1563,-0.1582,-0.163,-0.1577,-0.151,-0.1511,-0.1512,-0.1513,-0.1514,-0.0863,-0.0819,-0.0752,-0.0704,-0.0696,-0.0673,-0.0645,-0.064,-0.063,-0.0661,-0.0717,-0.0778,-0.0931,-0.1121,-0.1229,-0.1374,-0.1429,-0.1434,-0.1457,-0.1507,-0.1538,-0.1417,-0.1355,-0.1355,-0.1356,-0.1356,-0.1356,0,-0.08,-0.0745,-0.0688,-0.0636,-0.0608,-0.0616,-0.0588,-0.0562,-0.0548,-0.0581,-0.0604,-0.0701,-0.0845,-0.1019,-0.1217,-0.1333,-0.1438,-0.1398,-0.1483,-0.1517,-0.1434,-0.1435,-0.1343,-0.1343,-0.1343,-0.1343,-0.1343,-0.1343,-0.0761,-0.0688,-0.0644,-0.0567,-0.054,-0.0495,-0.0479,-0.0466,-0.0462,-0.0477,-0.0499,-0.0543,-0.0685,-0.1023,-0.128,-0.136,-0.1467,-0.147,-0.1547,-0.1502,-0.1509,-0.1516,-0.1524,-0.1452,-0.1452,-0.1644,-0.1646,-0.1647]}],[{"header":{"parameterUnit":"m.s-1","parameterCategory":2,"la1":30.2991,"la2":30.254,"lo1":-89.0895,"lo2":-89.0444,"dy":0.0017,"dx":0.0017,"nx":28,"ny":28,"refTime":"2024-11-26T03:00:00:Z","depth":"2","parameterNumber":2,"parameterNumberName":"U-component_of_CURRENTS"},"data":[0,0,0,0,0,0,0,0,0,0,0,0,0,0,0,0,0,0,0,0,0,0,0,0,0,0,0,0,0,0,0,0,0,0,0,0,0,0,0,0,0,0,0,0,0,0,0,0,0,0,0,0,0,0,0,0,0,0,0.0173,0.0172,0,0.0177,0.0178,0.0179,0.0208,0.0207,0.0207,0.0206,0.0364,0.0369,0.0374,0,0,0,0,0,0,0,0,0,0,0,0,0,0.0173,0.0174,0.0173,0.0172,0.017,0.0176,0.0178,0.0179,0.0208,0.0207,0.0206,0.0206,0.0363,0.0368,0.0374,0,0,0,0,0,0,0,0,0,0,0,0,0,0.0189,0.0175,0.0173,0.0174,0.0173,0.0176,0.0178,0.018,0.0208,0.0207,0.0206,0.0205,0.0361,0.0368,0.0375,0.0439,0,0,0.0397,0.04,0,0,0,0,0,0,0,0,0.0188,0.0191,0.0176,0.0174,0.0173,0.0178,0.0235,0.0269,0.0209,0.0211,0.0206,0.0205,0.0307,0.0319,0.0341,0.0447,0.0454,0.0398,0.0402,0.0405,0.0407,0,0,0,0,0,0,0,0.0187,0.019,0.019,0.0174,0.0172,0.0167,0.0171,0.0242,0.0279,0.0211,0.0209,0.0186,0.031,0.0334,0.0345,0.0456,0.0398,0.0404,0.0408,0.0411,0.0578,0.0578,0,0,0,0,0,0,0.0159,0.019,0.0189,0.0188,0.0161,0.0167,0.0171,0.0189,0.0275,0.0281,0.0187,0.0187,0.0322,0.0336,0.0351,0.0416,0.0405,0.0412,0.0416,0.0578,0.0578,0.0578,0,0,0,0,0,0,0.016,0.0161,0.0189,0.0174,0.0176,0.0167,0.0188,0.019,0.0221,0.0252,0.0265,0.0214,0.0322,0.034,0.0452,0.0422,0.0415,0.0422,0.0578,0.0578,0.0578,0.0557,0,0,0,0,0,0,0.0161,0.0162,0.0155,0.0174,0.0175,0.025,0.0187,0.019,0.02,0.0201,0.028,0.0292,0.0322,0.0442,0.046,0.0432,0.0427,0.0578,0.0578,0.0578,0.0557,0.0556,0.0555,0,0,0,0,0,0.0161,0.0168,0.0156,0.0154,0.0171,0.0252,0.0259,0.0254,0.0202,0.0269,0.0298,0.029,0.0451,0.0451,0.0471,0.0444,0.0578,0.0578,0.0578,0.0558,0.0556,0.0555,0,0,0,0,0,0,0.0161,0.017,0.0158,0.0165,0.0225,0.0253,0.0254,0.0262,0.0332,0.0313,0.0343,0.0364,0.043,0.0458,0.0455,0.0488,0.0493,0.0497,0.047,0.0469,0.0468,0.0454,0.0433,0,0,0,0,0,0.0153,0.0179,0.02,0.0221,0.0222,0.024,0.0252,0.0278,0.0327,0.0354,0.0385,0.0408,0.0445,0.0479,0.0529,0.0589,0.061,0.0567,0.0565,0.0564,0.0565,0.0605,0.0607,0.0579,0.0579,0.0579,0,0,0.0164,0.0163,0.018,0.0224,0.0232,0.0262,0.0252,0.0298,0.0315,0.0362,0.0385,0.0427,0.0465,0.0514,0.054,0.0537,0.0582,0.0565,0.0564,0.0565,0.0605,0.0608,0.0611,0.0579,0.0579,0.0579,0,0,0.0191,0.0187,0.0205,0.0241,0.0263,0.029,0.0307,0.0346,0.035,0.0425,0.041,0.0458,0.0528,0.0536,0.0548,0.0579,0.058,0.0561,0.0546,0.0584,0.0587,0.059,0.0612,0.0617,0.0553,0.0553,0.0553,0,0.017,0.0205,0.0235,0.0244,0.0252,0.0297,0.0326,0.0346,0.0423,0.0427,0.0437,0.05,0.0529,0.0557,0.0543,0.0574,0.0593,0.0548,0.0583,0.0586,0.0589,0.0612,0.0618,0.0552,0.0553,0.0553,0.0553,0,0.0209,0.0223,0.0232,0.0254,0.0301,0.0345,0.0365,0.0402,0.0401,0.0418,0.0464,0.0523,0.0566,0.0547,0.0556,0.0564,0.057,0.0583,0.0586,0.0591,0.0615,0.0621,0.0551,0.0551,0.0552,0.0552,0,0,0.0183,0.0238,0.0238,0.0261,0.0302,0.0366,0.0369,0.0416,0.0426,0.0469,0.0501,0.0515,0.0543,0.0557,0.0565,0.0572,0.0595,0.0573,0.0575,0.0594,0.067,0.069,0.0699,0.0614,0.0615,0.0616,0.0674,0,0.0185,0.0218,0.0251,0.0315,0.0336,0.0373,0.0387,0.0437,0.0477,0.0527,0.0536,0.058,0.0542,0.0576,0.058,0.0604,0.0612,0.0577,0.0664,0.0666,0.0683,0.0708,0.0587,0.0631,0.0681,0.0682,0.0683,0,0.0182,0.0222,0.0269,0.0345,0.0352,0.0397,0.0464,0.0495,0.0542,0.0563,0.0606,0.0639,0.0649,0.0638,0.0662,0.0643,0.0648,0.0655,0.0658,0.0691,0.0699,0.0636,0.0641,0.0693,0.0693,0.0692,0.0691,0,0.0179,0.0226,0.0277,0.0298,0.0388,0.041,0.0447,0.0501,0.0519,0.0594,0.0635,0.0679,0.07,0.0727,0.0712,0.07,0.0753,0.0755,0.0777,0.0778,0.07,0.0693,0.0783,0.0783,0.0782,0.0782,0.0782,0,0.0166,0.0217,0.0277,0.0326,0.0368,0.0426,0.048,0.051,0.0574,0.061,0.0653,0.07,0.0717,0.0749,0.0754,0.0781,0.0789,0.0784,0.0802,0.0689,0.0681,0.0754,0.075,0.0784,0.0784,0.0784,0.0783,0,0.0179,0.0212,0.0279,0.0362,0.0378,0.0411,0.0462,0.0514,0.0552,0.0617,0.0632,0.0698,0.0743,0.0769,0.0813,0.0818,0.0859,0.086,0.0717,0.0719,0.0851,0.0845,0.0926,0.0928,0.0929,0.093,0.0931,0,0.0194,0.0233,0.0298,0.0322,0.036,0.0401,0.0434,0.0482,0.0529,0.0609,0.0646,0.0708,0.0768,0.0849,0.0867,0.0917,0.0893,0.0816,0.0783,0.086,0.087,0.0862,0.0855,0.0659,0.0657,0.0656,0.0655,0,0.0242,0.0252,0.0305,0.0342,0.0378,0.0407,0.045,0.0473,0.054,0.058,0.0651,0.0716,0.0802,0.0805,0.0857,0.0869,0.0811,0.0798,0.092,0.0653,0.0616,0.0623,0.0623,0.0645,0.0646,0.0646,0.0647,0.0647,0.0258,0.027,0.0323,0.0353,0.0379,0.0412,0.0434,0.0488,0.0532,0.0598,0.0643,0.0689,0.0681,0.0749,0.0767,0.0778,0.0835,0.0754,0.0753,0.0755,0.0726,0.0695,0.0731,0.0732,0.0734,0.0735,0.0736,0,0.0279,0.0297,0.0339,0.0358,0.0377,0.0404,0.0455,0.0486,0.0526,0.0571,0.0619,0.0542,0.0571,0.0597,0.0605,0.0649,0.0623,0.0618,0.0523,0.0532,0.0541,0.0498,0.0445,0.0444,0.0444,0.0444,0,0,0.0291,0.0328,0.0349,0.0363,0.0373,0.0418,0.0447,0.0483,0.0514,0.0506,0.0486,0.0545,0.0544,0.0454,0.0461,0.0452,0.0501,0.0454,0.0673,0.0567,0.0576,0.0594,0.0537,0,0,0,0,0]},{"header":{"parameterUnit":"m.s-1","parameterCategory":2,"la1":30.2991,"la2":30.254,"lo1":-89.0895,"lo2":-89.0444,"dy":0.0017,"dx":0.0017,"nx":28,"ny":28,"refTime":"2024-11-26T03:00:00:Z","depth":"2","parameterNumber":3,"parameterNumberName":"V-component_of_CURRENTS"},"data":[0,0,0,0,0,0,0,0,0,0,0,0,0,0,0,0,0,0,0,0,0,0,0,0,0,0,0,0,0,0,0,0,0,0,0,0,0,0,0,0,0,0,0,0,0,0,0,0,0,0,0,0,0,0,0,0,0,0,0.0005,-0.0,0,-0.0281,-0.0282,-0.0283,-0.0301,-0.0301,-0.03,-0.03,0.0065,0.0074,0.0084,0,0,0,0,0,0,0,0,0,0,0,0,0,0.0375,0.0372,0.0006,-0.0,-0.0007,-0.0281,-0.0282,-0.0283,-0.0301,-0.03,-0.03,-0.03,0.0062,0.0073,0.0084,0,0,0,0,0,0,0,0,0,0,0,0,0,0.0194,0.0371,0.0007,-0.0072,-0.0084,-0.0281,-0.0282,-0.0283,-0.0301,-0.03,-0.03,-0.0299,0.0059,0.0072,0.0086,0.016,0,0,0.0129,0.0135,0,0,0,0,0,0,0,0,0.0205,0.0185,-0.0054,-0.0067,-0.0081,-0.0282,-0.0021,-0.0113,-0.0301,-0.0186,-0.03,-0.0299,-0.0011,0.0009,-0.0012,0.0177,0.0193,0.013,0.0139,0.0145,0.0149,0,0,0,0,0,0,0,0.0218,0.0196,-0.0076,-0.0062,-0.0079,-0.0152,-0.0171,-0.0039,-0.0062,-0.0196,-0.0206,-0.0287,-0.0009,-0.0026,-0.0002,0.0199,0.013,0.0142,0.0151,0.0156,0.0426,0.0425,0,0,0,0,0,0,0.0198,0.0208,-0.0068,-0.0088,0.0031,-0.016,-0.0181,-0.0193,-0.0078,-0.0075,-0.0288,-0.0288,-0.005,-0.0018,0.0012,0.008,0.0144,0.0158,0.0166,0.0428,0.0426,0.0425,0,0,0,0,0,0,0.0209,0.018,-0.0057,0.0025,-0.0014,-0.0169,-0.0181,-0.0199,-0.0236,-0.0161,-0.0137,-0.0312,-0.0048,-0.0008,0.0182,0.0097,0.0164,0.0177,0.0429,0.0427,0.0425,0.0239,0,0,0,0,0,0,0.0222,0.0188,0.0144,0.0026,-0.0021,-0.0074,-0.0186,-0.0207,-0.0302,-0.0303,-0.0172,-0.0139,-0.0045,0.016,0.0195,0.0117,0.0188,0.0431,0.0428,0.0426,0.0247,0.0231,0.0218,0,0,0,0,0,0.0238,0.0179,0.0147,0.0108,-0.0062,-0.0074,-0.0093,-0.0188,-0.0303,-0.0233,-0.0181,-0.0143,0.0165,0.0175,0.0216,0.0138,0.0432,0.0429,0.0426,0.0253,0.0234,0.0218,0,0,0,0,0,0,0.032,0.0164,0.0128,0.0028,0.0022,-0.0085,-0.0153,-0.0205,-0.0138,-0.0146,-0.0084,-0.0038,0.0064,0.0156,0.0161,0.0204,0.0274,0.0279,0.0128,0.0112,0.0097,0.0115,0.0199,0,0,0,0,0,0.031,0.0247,0.0151,0.0097,0.0048,-0.0054,-0.0112,-0.0111,-0.0099,-0.0081,-0.0027,0.0028,0.0078,0.0147,0.0253,0.0336,0.0376,0.0289,0.0274,0.0261,0.0301,0.0282,0.0268,0.0416,0.0416,0.0416,0,0,0.0329,0.0222,0.019,0.0109,0.0036,0.0013,-0.0074,-0.0101,-0.0127,-0.0034,-0.0043,0.0019,0.0096,0.0162,0.0207,0.0236,0.0231,0.0257,0.0245,0.0295,0.0278,0.0263,0.025,0.0414,0.0414,0.0414,0,0,0.0321,0.0238,0.0171,0.016,0.0073,0.0054,0.0047,-0.0017,-0.006,0.001,-0.0023,0.002,0.0137,0.0136,0.0147,0.013,0.0158,0.011,0.0056,0.0033,0.002,0.001,-0.0007,-0.0017,0.0095,0.0094,0.0094,0,0.0274,0.0237,0.0176,0.0114,0.0067,0.0064,0.0047,0.001,0.0039,-0.0018,0.003,0.0049,0.0107,0.0078,0.004,0.009,0.0096,0.0104,0.001,0.0002,-0.0006,-0.002,-0.0028,0.0085,0.0086,0.0087,0.0088,0,0.0271,0.0208,0.0164,0.0093,0.0102,0.0104,0.0059,0.006,0.0002,-0.0052,-0.0059,0.0037,0.0042,0.0002,0.0022,-0.0057,-0.0034,-0.001,0.0045,-0.0033,-0.0042,-0.0048,0.0072,0.0075,0.0078,0.008,0,0,0.017,0.0138,0.012,0.0101,0.0089,0.0112,0.0058,0.0004,-0.006,-0.004,-0.0114,-0.0121,-0.0113,-0.0095,-0.0094,-0.0118,-0.0221,-0.01,-0.0097,-0.0132,-0.0274,-0.0288,-0.0295,-0.023,-0.0231,-0.0232,-0.0278,0,0.0134,0.0082,0.0079,0.0081,0.0053,0.0048,0.0006,-0.0014,-0.0024,-0.0059,-0.0108,-0.0107,-0.0154,-0.012,-0.0179,-0.0178,-0.0235,-0.0209,-0.0174,-0.0171,-0.0189,-0.0301,-0.0171,-0.0203,-0.0283,-0.0284,-0.0285,0,0.0065,0.0075,0.008,0.0057,0.0031,0.0057,0.0042,0.0007,-0.007,-0.0098,-0.0126,-0.0103,-0.0177,-0.0146,-0.0243,-0.0228,-0.0273,-0.0271,-0.0273,-0.0205,-0.0195,-0.0125,-0.0209,-0.0293,-0.0293,-0.0292,-0.0291,0,0.0059,0.001,0.0046,0.0051,0.0077,0.0046,0.0019,-0.0019,-0.0071,-0.0103,-0.0091,-0.014,-0.0145,-0.0192,-0.0263,-0.0249,-0.032,-0.0301,-0.0355,-0.0356,-0.0187,-0.0172,-0.0361,-0.036,-0.036,-0.036,-0.036,0,-0.0012,-0.0005,0.0049,0.0085,0.0097,0.0075,0.0072,-0.0001,-0.0029,-0.0074,-0.0117,-0.009,-0.0157,-0.0202,-0.0253,-0.0347,-0.0349,-0.0366,-0.0374,-0.0254,-0.0245,-0.025,-0.0237,-0.0362,-0.0362,-0.0361,-0.0361,0,-0.0007,0.0012,0.0023,0.0074,0.0098,0.0088,0.0065,0.006,-0.0008,-0.0028,-0.0043,-0.0102,-0.0158,-0.0214,-0.0268,-0.0355,-0.0398,-0.0434,-0.0294,-0.0286,-0.0412,-0.0408,-0.0469,-0.047,-0.0471,-0.0472,-0.0473,0,-0.0004,0.0033,0.0062,0.0075,0.0102,0.0117,0.0134,0.0069,0.0072,-0.0028,-0.0036,-0.0087,-0.0094,-0.0212,-0.0273,-0.0348,-0.0413,-0.036,-0.0313,-0.0424,-0.0426,-0.042,-0.0414,-0.0175,-0.0173,-0.0171,-0.017,0,0.007,0.0059,0.0104,0.0132,0.0148,0.0178,0.0173,0.0206,0.0128,0.0096,0.0051,0.0051,-0.0046,-0.0049,-0.0193,-0.0232,-0.0327,-0.0334,-0.0483,-0.018,-0.0154,-0.0153,-0.0156,-0.0156,-0.0158,-0.0159,-0.0159,-0.016,0.01,0.0121,0.0159,0.0171,0.019,0.024,0.0251,0.0277,0.0286,0.0246,0.0191,0.0162,0.012,0.0037,-0.0088,-0.0227,-0.0218,-0.0255,-0.0256,-0.026,-0.023,-0.0208,-0.0215,-0.0216,-0.0218,-0.0219,-0.022,0,0.013,0.0162,0.0209,0.0201,0.0196,0.021,0.0301,0.0333,0.0372,0.0356,0.0321,0.0311,0.0274,0.0156,0.001,-0.0112,-0.0091,-0.018,-0.0098,-0.0107,-0.0116,-0.0078,-0.0023,-0.0025,-0.0026,-0.0027,0,0,0.0124,0.0164,0.0216,0.0243,0.0228,0.0281,0.0331,0.0394,0.0435,0.0497,0.048,0.0476,0.0357,0.0271,0.0161,0.005,-0.0026,0.0029,-0.009,0.0018,0.0008,-0.0091,-0.0035,0,0,0,0,0]}],[{"header":{"parameterUnit":"m.s-1","parameterCategory":2,"la1":30.2991,"la2":30.254,"lo1":-89.0895,"lo2":-89.0444,"dy":0.0017,"dx":0.0017,"nx":28,"ny":28,"refTime":"2024-11-26T03:00:00:Z","depth":"4","parameterNumber":2,"parameterNumberName":"U-component_of_CURRENTS"},"data":[0,0,0,0,0,0,0,0,0,0,0,0,0,0,0,0,0,0,0,0,0,0,0,0,0,0,0,0,0,0,0,0,0,0,0,0,0,0,0,0,0,0,0,0,0,0,0,0,0,0,0,0,0,0,0,0,0,0,-0.019,-0.019,0,-0.0204,-0.0204,-0.0204,-0.0218,-0.0219,-0.0219,-0.0219,-0.0336,-0.0339,-0.0342,0,0,0,0,0,0,0,0,0,0,0,0,0,-0.013,-0.0131,-0.019,-0.019,-0.019,-0.0204,-0.0204,-0.0204,-0.0218,-0.0219,-0.0219,-0.0219,-0.0335,-0.0338,-0.0342,0,0,0,0,0,0,0,0,0,0,0,0,0,-0.0151,-0.0131,-0.019,-0.0198,-0.0199,-0.0204,-0.0204,-0.0204,-0.0218,-0.0219,-0.0219,-0.0219,-0.0334,-0.0338,-0.0342,-0.0365,0,0,-0.0356,-0.0358,0,0,0,0,0,0,0,0,-0.015,-0.0154,-0.0197,-0.0198,-0.0199,-0.0209,-0.0225,-0.0263,-0.0218,-0.0211,-0.0219,-0.0219,-0.0303,-0.031,-0.0311,-0.037,-0.0375,-0.0356,-0.0359,-0.0361,-0.0362,0,0,0,0,0,0,0,-0.0149,-0.0153,-0.0195,-0.0197,-0.0198,-0.0186,-0.019,-0.0232,-0.0258,-0.0212,-0.0213,-0.0214,-0.0304,-0.0306,-0.0314,-0.0377,-0.0356,-0.036,-0.0363,-0.0365,-0.0584,-0.0587,0,0,0,0,0,0,-0.0149,-0.0152,-0.0195,-0.0196,-0.0174,-0.0187,-0.0191,-0.0206,-0.0255,-0.0262,-0.0214,-0.0215,-0.0299,-0.0309,-0.0318,-0.0426,-0.0361,-0.0365,-0.0368,-0.0581,-0.0585,-0.0588,0,0,0,0,0,0,-0.0148,-0.0153,-0.0194,-0.0173,-0.0177,-0.0188,-0.0204,-0.0206,-0.0226,-0.0255,-0.0264,-0.0234,-0.0299,-0.0312,-0.0384,-0.0428,-0.0367,-0.0371,-0.0577,-0.0582,-0.0586,-0.0592,0,0,0,0,0,0,-0.0146,-0.0153,-0.0171,-0.0173,-0.0178,-0.0211,-0.0204,-0.0206,-0.0225,-0.0227,-0.0275,-0.0285,-0.03,-0.0378,-0.0389,-0.0433,-0.0375,-0.0573,-0.0579,-0.0585,-0.0588,-0.0597,-0.0604,0,0,0,0,0,-0.0144,-0.0169,-0.0172,-0.0178,-0.0202,-0.0212,-0.0214,-0.0221,-0.0226,-0.0239,-0.0282,-0.0284,-0.0424,-0.0383,-0.0396,-0.0442,-0.057,-0.0577,-0.0584,-0.0585,-0.0595,-0.0604,0,0,0,0,0,0,-0.016,-0.0173,-0.0177,-0.0207,-0.0214,-0.0214,-0.023,-0.0233,-0.0273,-0.0293,-0.0312,-0.0326,-0.0415,-0.0434,-0.0388,-0.053,-0.0503,-0.0513,-0.0499,-0.0509,-0.0517,-0.046,-0.0378,0,0,0,0,0,-0.0169,-0.0199,-0.0196,-0.0229,-0.0228,-0.0232,-0.024,-0.0252,-0.028,-0.0297,-0.0339,-0.0396,-0.0451,-0.0481,-0.054,-0.0603,-0.0555,-0.065,-0.0657,-0.0664,-0.0631,-0.0591,-0.0589,-0.0611,-0.0611,-0.0611,0,0,-0.0194,-0.02,-0.0222,-0.0235,-0.024,-0.0255,-0.0239,-0.0267,-0.03,-0.0308,-0.0388,-0.0431,-0.0479,-0.0558,-0.0599,-0.0576,-0.0639,-0.0673,-0.0677,-0.0639,-0.0597,-0.0594,-0.0591,-0.0616,-0.0615,-0.0615,0,0,-0.023,-0.0251,-0.0271,-0.0276,-0.0288,-0.0295,-0.0306,-0.0328,-0.0356,-0.0427,-0.0451,-0.0507,-0.0603,-0.0628,-0.0654,-0.0742,-0.069,-0.0787,-0.0765,-0.0728,-0.0723,-0.0718,-0.066,-0.065,-0.078,-0.078,-0.078,0,-0.0251,-0.0276,-0.028,-0.0287,-0.0302,-0.0314,-0.0335,-0.0364,-0.0421,-0.0445,-0.0467,-0.0583,-0.0629,-0.0681,-0.071,-0.0754,-0.0707,-0.0716,-0.0729,-0.0724,-0.0718,-0.066,-0.0648,-0.0781,-0.0781,-0.0781,-0.0781,0,-0.0283,-0.0308,-0.032,-0.034,-0.0358,-0.0387,-0.0413,-0.0456,-0.0501,-0.0524,-0.0605,-0.0654,-0.0691,-0.0748,-0.0749,-0.0757,-0.0728,-0.0744,-0.0682,-0.0714,-0.0653,-0.0641,-0.0783,-0.0782,-0.0782,-0.0782,0,0,-0.0314,-0.0337,-0.0344,-0.0352,-0.0392,-0.0405,-0.0469,-0.0508,-0.0524,-0.0607,-0.0621,-0.0724,-0.0709,-0.0734,-0.0754,-0.0733,-0.0669,-0.0708,-0.0706,-0.0608,-0.0551,-0.0507,-0.0489,-0.0669,-0.0667,-0.0665,-0.0522,0,-0.0335,-0.0357,-0.0375,-0.0418,-0.0426,-0.046,-0.0503,-0.0549,-0.0589,-0.0612,-0.0658,-0.0678,-0.0715,-0.0702,-0.0696,-0.068,-0.0636,-0.0704,-0.0569,-0.0564,-0.0487,-0.0474,-0.0659,-0.0512,-0.0509,-0.0507,-0.0506,0,-0.0344,-0.0361,-0.0394,-0.043,-0.0436,-0.0461,-0.0505,-0.0542,-0.0575,-0.0595,-0.0609,-0.0618,-0.0606,-0.0622,-0.0571,-0.0603,-0.0555,-0.0546,-0.0541,-0.0476,-0.0497,-0.0478,-0.0482,-0.0484,-0.0486,-0.0487,-0.0489,0,-0.0335,-0.0373,-0.0401,-0.0415,-0.0456,-0.0472,-0.0492,-0.053,-0.0543,-0.0532,-0.0516,-0.0527,-0.0488,-0.0466,-0.0448,-0.0476,-0.0379,-0.042,-0.0337,-0.0333,-0.0407,-0.0414,-0.0341,-0.0341,-0.0341,-0.0342,-0.0342,0,-0.0334,-0.0357,-0.0385,-0.0396,-0.0408,-0.0443,-0.0447,-0.0461,-0.0468,-0.0445,-0.0462,-0.0424,-0.0435,-0.0398,-0.0397,-0.032,-0.0325,-0.0298,-0.0284,-0.0421,-0.0431,-0.0397,-0.0406,-0.0336,-0.0337,-0.0338,-0.0339,0,-0.0308,-0.0337,-0.0358,-0.0395,-0.0393,-0.0391,-0.0393,-0.0393,-0.0387,-0.0343,-0.0314,-0.0307,-0.0234,-0.026,-0.0204,-0.0219,-0.0179,-0.0145,-0.0259,-0.026,-0.0165,-0.0176,-0.0015,-0.0012,-0.001,-0.0008,-0.0006,0,-0.0287,-0.0298,-0.0333,-0.032,-0.0324,-0.0319,-0.0315,-0.0337,-0.0313,-0.0265,-0.0226,-0.015,-0.0137,-0.0039,-0.0074,-0.0043,-0.0057,-0.0023,-0.0118,-0.0124,-0.0127,-0.0143,-0.0157,-0.0002,-0.0001,-0.0001,-0.0,0,-0.0245,-0.0271,-0.029,-0.0259,-0.0248,-0.0234,-0.0207,-0.0192,-0.0189,-0.0192,-0.0097,-0.0058,0.0021,0.0028,0.0061,0.006,-0.0053,0.0002,-0.0004,-0.0093,-0.0106,-0.0115,-0.0133,0.0008,0.0007,0.0006,0.0006,0,-0.0205,-0.0205,-0.0219,-0.0192,-0.0179,-0.0135,-0.0142,-0.0097,-0.0085,-0.0045,-0.0004,0.0037,0.0055,0.0088,0.0102,0.012,0.0112,0.0091,0.008,0.007,0.0022,0.0012,0.0211,0,0,0,0,0,-0.013,-0.0135,-0.0131,-0.0113,-0.011,-0.0087,-0.0066,-0.0078,-0.008,0.0005,0.0003,0.0077,0.0129,0.0131,0.0168,0.0132,0.0099,0.0173,0.0065,0.0056,0.0046,-0.0026,0,0,0,0,0,0,-0.0083,-0.0084,-0.0117,-0.0058,-0.0031,-0.0008,0.0002,0.0,0.0049,0.0051,0.0076,0.0087,0.0125,0.0119,0.0172,0.0174,0.0111,0.0186,0.0187,0.0062,0.0053,0.0045,-0.0032,0,0,0,0,0]},{"header":{"parameterUnit":"m.s-1","parameterCategory":2,"la1":30.2991,"la2":30.254,"lo1":-89.0895,"lo2":-89.0444,"dy":0.0017,"dx":0.0017,"nx":28,"ny":28,"refTime":"2024-11-26T03:00:00:Z","depth":"4","parameterNumber":3,"parameterNumberName":"V-component_of_CURRENTS"},"data":[0,0,0,0,0,0,0,0,0,0,0,0,0,0,0,0,0,0,0,0,0,0,0,0,0,0,0,0,0,0,0,0,0,0,0,0,0,0,0,0,0,0,0,0,0,0,0,0,0,0,0,0,0,0,0,0,0,0,0.0219,0.0219,0,0.0145,0.0144,0.0143,0.0136,0.0137,0.0139,0.014,0.0151,0.015,0.0149,0,0,0,0,0,0,0,0,0,0,0,0,0,0.0238,0.0238,0.0219,0.0219,0.0219,0.0146,0.0144,0.0142,0.0136,0.0138,0.0139,0.0141,0.0151,0.015,0.0149,0,0,0,0,0,0,0,0,0,0,0,0,0,0.0197,0.0238,0.022,0.0212,0.0211,0.0146,0.0144,0.0142,0.0135,0.0138,0.014,0.0142,0.0152,0.015,0.0149,0.0096,0,0,0.0144,0.0143,0,0,0,0,0,0,0,0,0.02,0.0196,0.0213,0.0213,0.0211,0.0158,0.0155,0.0133,0.0135,0.0157,0.014,0.0143,0.0164,0.0162,0.0132,0.0096,0.0097,0.0144,0.0143,0.0142,0.0142,0,0,0,0,0,0,0,0.0203,0.0198,0.0183,0.0213,0.0212,0.0173,0.017,0.0149,0.0145,0.0155,0.0156,0.0158,0.0164,0.0133,0.0132,0.0097,0.0144,0.0142,0.0141,0.0141,0.0109,0.0109,0,0,0,0,0,0,0.023,0.0202,0.0186,0.0182,0.0219,0.0172,0.0168,0.0167,0.0144,0.0144,0.0157,0.0158,0.0135,0.0134,0.0133,0.0181,0.0142,0.0141,0.014,0.0109,0.0109,0.0109,0,0,0,0,0,0,0.023,0.0229,0.0189,0.0196,0.0189,0.0171,0.0169,0.0165,0.0166,0.0145,0.0146,0.0168,0.0136,0.0135,0.0111,0.0178,0.014,0.0138,0.0108,0.0109,0.0109,0.0207,0,0,0,0,0,0,0.0231,0.0229,0.0245,0.0197,0.019,0.0156,0.0168,0.0162,0.0166,0.0168,0.0154,0.0155,0.0138,0.0113,0.0109,0.0175,0.0137,0.0108,0.0109,0.0109,0.0204,0.0211,0.0216,0,0,0,0,0,0.0232,0.023,0.0245,0.0244,0.0209,0.0156,0.0146,0.0136,0.0165,0.0149,0.0136,0.0158,0.0114,0.011,0.0106,0.0174,0.0108,0.0108,0.0109,0.0201,0.0209,0.0216,0,0,0,0,0,0,0.0237,0.0229,0.0244,0.0241,0.0212,0.0158,0.015,0.0151,0.0125,0.0145,0.0131,0.0128,0.014,0.0121,0.0118,0.016,0.0126,0.0126,0.0198,0.0205,0.0212,0.0195,0.0136,0,0,0,0,0,0.0251,0.0258,0.0231,0.0231,0.0222,0.0196,0.0182,0.0176,0.0147,0.014,0.0139,0.0136,0.0128,0.0139,0.0116,0.0125,0.0104,0.017,0.0177,0.0183,0.0163,0.0182,0.019,0.0109,0.0109,0.0109,0,0,0.0258,0.0254,0.0262,0.0236,0.0217,0.0175,0.0191,0.0174,0.0152,0.0145,0.0134,0.015,0.0128,0.0138,0.0148,0.0142,0.0194,0.0183,0.0189,0.0165,0.0183,0.0191,0.0199,0.011,0.011,0.011,0,0,0.0242,0.0268,0.0256,0.0228,0.0211,0.0185,0.0191,0.0162,0.0168,0.0151,0.0156,0.019,0.0178,0.018,0.0178,0.0197,0.0216,0.0231,0.027,0.0291,0.0298,0.0304,0.0294,0.0298,0.0251,0.0251,0.0251,0,0.026,0.0231,0.024,0.0202,0.0182,0.0193,0.0152,0.014,0.0115,0.0127,0.0162,0.0181,0.0189,0.0198,0.0228,0.0217,0.0224,0.0253,0.0303,0.0308,0.0312,0.03,0.0304,0.0256,0.0255,0.0255,0.0254,0,0.0205,0.0193,0.0178,0.0143,0.0117,0.0089,0.0074,0.0082,0.0124,0.0128,0.0174,0.0193,0.0216,0.0255,0.0255,0.0311,0.0303,0.0303,0.0292,0.0327,0.0311,0.0314,0.0263,0.0261,0.0259,0.0258,0,0,0.024,0.0159,0.0164,0.013,0.009,0.0058,0.0044,0.0027,0.0041,0.0092,0.0113,0.0173,0.0245,0.0245,0.029,0.0332,0.04,0.0359,0.0358,0.0363,0.0443,0.0326,0.0317,0.0438,0.0439,0.0439,0.0422,0,0.0206,0.0122,0.0094,0.0027,-0.002,-0.0017,-0.0037,-0.0034,0.0002,0.0028,0.011,0.0157,0.0223,0.0293,0.034,0.0365,0.0409,0.0403,0.0392,0.039,0.0296,0.0316,0.0442,0.0423,0.0424,0.0424,0.0424,0,0.0174,0.0117,0.0047,-0.003,-0.0043,-0.0055,-0.0058,-0.0071,-0.0033,0.0011,0.0091,0.014,0.0219,0.0284,0.0355,0.0362,0.0415,0.0441,0.0441,0.029,0.0276,0.0375,0.0427,0.0427,0.0427,0.0426,0.0426,0,0.0191,0.0092,0.0044,0.0016,-0.0064,-0.0047,-0.005,-0.0034,-0.0027,0.0044,0.0074,0.0144,0.0213,0.0278,0.0332,0.0378,0.0372,0.0429,0.0362,0.0353,0.0423,0.0417,0.0483,0.0483,0.0483,0.0483,0.0483,0,0.0159,0.0123,0.0071,0.0045,0.0022,-0.0013,0.0003,0.0015,0.0042,0.0028,0.0115,0.0112,0.0231,0.0231,0.0296,0.0294,0.0344,0.0348,0.034,0.0463,0.0462,0.0425,0.0419,0.0483,0.0483,0.0483,0.0483,0,0.0175,0.0135,0.0084,0.0035,0.0036,0.005,0.0048,0.0041,0.009,0.0076,0.0112,0.0121,0.0115,0.0152,0.021,0.0235,0.0247,0.024,0.0316,0.0314,0.0236,0.0235,0.0193,0.0189,0.0185,0.0182,0.0179,0,0.015,0.0133,0.0112,0.0115,0.0115,0.0124,0.0114,0.0109,0.0071,0.0045,0.0007,0.0018,0.0013,-0.0003,0.0036,0.0084,0.0114,0.013,0.0248,0.0209,0.0206,0.0211,0.0214,0.0174,0.0173,0.0172,0.0171,0,0.0105,0.0148,0.0112,0.0134,0.0143,0.0089,0.0069,0.0059,0.0006,0.002,-0.0047,-0.0036,-0.0089,-0.0064,-0.0054,-0.0009,0.0122,0.0094,0.0106,0.0217,0.0186,0.0187,0.0195,0.0158,0.016,0.0161,0.0162,0,0.0106,0.0093,0.0097,0.0139,0.0135,0.0085,0.0056,-0.0015,-0.0046,-0.0077,-0.0128,-0.0128,-0.013,-0.0122,-0.0133,-0.0105,-0.0038,0.0039,0.0055,0.0069,0.0034,-0.0024,-0.0136,0,0,0,0,0,0.0096,0.01,0.009,0.0104,0.0115,0.0119,0.0017,-0.0035,-0.0089,-0.0131,-0.0113,-0.0164,-0.0154,-0.017,-0.0153,-0.019,-0.0049,-0.0171,0.0047,0.0088,0.0103,0.0071,0,0,0,0,0,0,0.0074,0.0068,0.0073,0.01,0.0148,0.0084,0.0048,-0.0023,-0.0068,-0.0088,-0.0092,-0.0102,-0.0109,-0.0109,-0.0111,-0.0118,0.0028,-0.0175,-0.0175,0.008,0.0093,0.0105,0.0077,0,0,0,0,0]}]]